User: anonymous   Login
Location: El Conde
(10.2895°N, 67.2409°W)
Time: 17:12:39
(UTC+00:00)
Language:

Cosmos 1867 - Orbit

View from above orbital plane
View from above orbital plane
View from above satellite
View from above satellite

Ground track
Ground track

The orbit data is extracted from the following two-line orbital elements,

1 18187U 87060A   24207.19520744  .00000081  00000-0  68287-4 0  9997
2 18187  65.0098 165.7856 0021030 269.6760  90.1914 14.31317828935352
Epoch (UTC): 25 July 2024 04:41:05
Eccentricity: 0.0021030
inclination: 65.0098°
perigee height: 772 km
apogee height: 802 km
right ascension of ascending node: 165.7856°
argument of perigee: 269.6760°
revolutions per day: 14.31317828
mean anomaly at epoch: 90.1914°
orbit number at epoch: 93535

The dashed part of the orbit path shows where the satellite is in the earth's shadow,  

DLR